[[{"header":{"parameterUnit":"m.s-1","parameterCategory":1,"la1":30.2992,"la2":30.254,"lo1":-89.0895,"lo2":-89.0443,"dy":0.0025,"dx":0.0025,"nx":19,"ny":19,"refTime":"2026-05-22T21:00:00:Z","depth":0,"parameterNumber":2,"parameterNumberName":"U-component_of_WINDS"},"data":[0,0,0,1.3991,1.399,1.3924,1.3924,1.3857,1.3857,0,0,0,0,0,0,0,0,0,0,0,1.4022,1.4022,1.3991,1.399,1.3924,1.3924,1.3857,1.3857,0,0,0,0,0,0,0,0,0,0,0,1.4022,1.4022,1.4022,1.399,1.3924,1.3924,1.3857,1.39,0,0,0,0,0,0,0,0,0,0,1.3961,1.4001,1.4022,1.4022,1.399,1.3924,1.3924,1.3902,1.3898,1.3895,0,1.3896,0,1.3876,1.3853,1.3853,0,0,0,1.3981,1.4005,1.3977,1.4022,1.3989,1.3925,1.3951,1.3899,1.3895,1.3889,1.3895,1.3892,1.3875,1.3853,1.3853,1.3871,1.3872,0,0,1.3984,1.4016,1.3981,1.3975,1.3987,1.3953,1.3949,1.3896,1.3904,1.3895,1.389,1.3874,1.3853,1.3852,1.3871,1.3871,0,0,0,1.4001,1.4019,1.3992,1.3978,1.3965,1.3952,1.3947,1.3906,1.3895,1.3889,1.3873,1.3853,1.3852,1.387,1.3871,1.3928,0,0,0,1.4003,1.4029,1.3994,1.4013,1.3966,1.3935,1.3959,1.3899,1.3892,1.3873,1.3853,1.3851,1.3869,1.387,1.3925,1.3949,0,0,0,1.4022,1.4031,1.4025,1.4015,1.3988,1.3935,1.392,1.3897,1.3882,1.3853,1.3851,1.3869,1.387,1.3923,1.3945,1.3964,0,0,0,1.4052,1.4075,1.4027,1.4046,1.3988,1.3972,1.392,1.3906,1.3888,1.3852,1.3869,1.3871,1.3922,1.3942,1.3962,1.3986,1.3999,0,0,1.4099,1.4082,1.4091,1.4046,1.4046,1.3979,1.3987,1.394,1.3907,1.3885,1.3885,1.3926,1.3944,1.3964,1.4063,1.4074,0,0,0,1.4116,1.4123,1.4117,1.4102,1.4068,1.4041,1.399,1.3972,1.3953,1.3903,1.3937,1.3947,1.3957,1.3967,1.3976,1.3983,1.3877,1.3877,1.3877,1.4226,1.4186,1.4199,1.4151,1.4138,1.4086,1.4072,1.404,1.4,1.401,1.4002,1.4068,1.4081,1.4088,1.4095,1.4012,1.4012,1.4012,1.4013,1.429,1.4294,1.4246,1.424,1.4198,1.4193,1.4145,1.4118,1.4107,1.4069,1.4076,1.4038,1.4101,1.4105,1.4016,1.4016,1.4015,1.4015,1.4015,1.4357,1.4352,1.4333,1.431,1.4297,1.4248,1.4241,1.4202,1.4164,1.4171,1.416,1.4159,1.4153,1.4169,1.4169,1.4169,1.417,1.417,1.417,1.4434,1.4411,1.441,1.4379,1.4366,1.4344,1.4295,1.4281,1.4255,1.4227,1.4227,1.4188,1.4115,1.4098,1.4173,1.4173,1.4172,1.4172,1.4172,1.4513,1.449,1.4489,1.4477,1.4439,1.4429,1.4381,1.4356,1.4339,1.4337,1.4297,1.425,1.4229,1.4221,1.4207,1.4306,1.4306,1.4306,1.4306,1.4569,1.4556,1.4548,1.4532,1.451,1.4468,1.4469,1.4432,1.439,1.4377,1.4357,1.4334,1.4329,1.4311,1.4301,1.4287,1.4404,1.4404,1.4404,1.4616,1.46,1.4608,1.4569,1.4537,1.451,1.4511,1.4493,1.444,1.4408,1.4366,1.4362,1.4325,1.4315,1.428,1.4266,1.4238,0,0]},{"header":{"parameterUnit":"m.s-1","parameterCategory":1,"la1":30.2992,"la2":30.254,"lo1":-89.0895,"lo2":-89.0443,"dy":0.0025,"dx":0.0025,"nx":19,"ny":19,"refTime":"2026-05-22T21:00:00:Z","depth":0,"parameterNumber":3,"parameterNumberName":"V-component_of_WINDS"},"data":[0,0,0,1.948,1.9488,1.9912,1.9914,2.039,2.0394,0,0,0,0,0,0,0,0,0,0,0,1.9313,1.9315,1.9479,1.9488,1.9912,1.9914,2.039,2.0394,0,0,0,0,0,0,0,0,0,0,0,1.9312,1.9314,1.9316,1.949,1.9912,1.9915,2.0389,2.0093,0,0,0,0,0,0,0,0,0,0,1.9692,1.9498,1.9314,1.9316,1.9492,1.9911,1.9915,2.0079,2.0111,2.0169,0,2.0209,0,2.0308,2.0421,2.0423,0,0,0,1.952,1.9471,1.9622,1.9317,1.9495,1.991,1.973,2.0098,2.0133,2.021,2.0217,2.0236,2.0316,2.0424,2.0426,2.0654,2.0654,0,0,1.9496,1.9367,1.9597,1.9643,1.9573,1.9716,1.9742,2.0121,2.0119,2.0219,2.0249,2.0324,2.0427,2.043,2.0655,2.0654,0,0,0,1.9408,1.9349,1.9494,1.9622,1.9703,1.9727,1.9758,2.0102,2.016,2.0254,2.033,2.0429,2.0434,2.0656,2.0655,2.0508,0,0,0,1.9395,1.9298,1.9481,1.9407,1.9695,1.9908,1.973,2.0134,2.0181,2.0327,2.0429,2.0438,2.0656,2.0655,2.0514,2.046,0,0,0,1.9299,1.9288,1.9335,1.9399,1.9577,1.9905,1.9986,2.0147,2.0225,2.0423,2.0439,2.0657,2.0655,2.0518,2.0468,2.0481,0,0,0,1.916,1.92,1.933,1.9405,1.9572,1.9811,1.9984,2.017,2.0322,2.0431,2.0656,2.0655,2.052,2.0474,2.0485,2.0466,2.0447,0,0,1.9139,1.9193,1.9248,1.9376,1.9558,1.9757,1.9919,2.0182,2.032,2.0535,2.0543,2.0512,2.0469,2.0482,2.0387,2.037,0,0,0,1.9197,1.9234,1.9311,1.9449,1.9649,1.9816,2.0068,2.0165,2.0354,2.0404,2.0525,2.0504,2.0516,2.0513,2.05,2.0518,2.0649,2.0649,2.0649,1.8982,1.9155,1.9255,1.9478,1.9609,1.9867,1.999,2.0166,2.0303,2.0328,2.0393,2.0314,2.0306,2.0297,2.0313,2.0399,2.0399,2.0398,2.0398,1.8966,1.9044,1.9224,1.9385,1.9567,1.9706,1.9955,2.0047,2.0202,2.0281,2.0301,2.0369,2.0273,2.0297,2.0389,2.039,2.0391,2.0392,2.0393,1.8843,1.891,1.9027,1.9243,1.939,1.9616,1.9756,1.9918,2.0072,2.0092,2.0176,2.0179,2.0201,2.0121,2.0121,2.0121,2.012,2.012,2.012,1.8667,1.8804,1.8901,1.9115,1.9224,1.9389,1.9647,1.976,1.9926,2.0033,2.0035,2.0167,2.0232,2.0243,2.0116,2.0117,2.0118,2.0118,2.0118,1.8583,1.8628,1.8776,1.8885,1.915,1.9284,1.949,1.9704,1.9821,1.9884,2.0014,2.0036,2.0104,2.0116,2.0126,1.9978,1.9978,1.9978,1.9978,1.8476,1.8527,1.8715,1.8877,1.9056,1.9256,1.9419,1.962,1.9836,1.9919,1.9964,1.9993,1.9998,2.0063,2.0076,2.0089,1.9933,1.9933,1.9933,1.8433,1.8508,1.8614,1.8824,1.9042,1.9226,1.9384,1.9564,1.9819,1.9935,1.9987,1.9988,2.0037,2.0044,2.0157,2.0175,2.0201,0,0]}]]